QPF
0.00 0.00 0.01 0.01 0.00 0.01 0.01 0.01 0.01 0.01 0.01 0.01 0.01 0.01 0.01 0.02 0.02 0.01 0.02 0.03 0.04 0.05 0.05 0.03 0.02 0.02 0.02 0.01 0.01 0.02 0.02 0.02 0.03 0.03 0.04 0.04 0.06 0.14 0.19 0.19 0.14 0.09 0.08
0.00 0.00 0.00 0.00 0.00 0.00 0.00 0.01 0.01 0.00 0.00 0.01 0.01 0.01 0.01 0.01 0.01 0.01 0.01 0.02 0.02 0.03 0.03 0.03 0.02 0.02 0.01 0.01 0.01 0.02 0.02 0.02 0.03 0.04 0.05 0.05 0.06 0.12 0.20 0.22 0.17 0.12 0.09
0.00 0.00 0.00 0.00 0.00 0.00 0.00 0.00 0.01 0.01 0.00 0.01 0.02 0.01 0.01 0.01 0.01 0.01 0.01 0.01 0.02 0.02 0.01 0.01 0.01 0.02 0.02 0.01 0.01 0.02 0.02 0.02 0.04 0.05 0.05 0.05 0.05 0.07 0.12 0.13 0.12 0.08 0.08
0.00 0.00 0.00 0.00 0.00 0.00 0.00 0.00 0.00 0.00 0.00 0.01 0.01 0.01 0.01 0.02 0.02 0.01 0.01 0.02 0.02 0.02 0.02 0.01 0.01 0.01 0.02 0.02 0.02 0.02 0.02 0.03 0.04 0.04 0.05 0.05 0.05 0.11 0.13 0.07 0.07 0.05 0.06
0.00 0.00 0.00 0.00 0.00 0.00 0.00 0.00 0.00 0.00 0.01 0.01 0.01 0.01 0.01 0.02 0.02 0.01 0.01 0.05 0.03 0.02 0.01 0.01 0.01 0.01 0.01 0.02 0.04 0.03 0.02 0.03 0.03 0.04 0.05 0.05 0.06 0.10 0.11 0.07 0.06 0.05 0.06
0.00 0.00 0.00 0.00 0.00 0.00 0.00 0.00 0.00 0.00 0.00 0.01 0.00 0.01 0.01 0.01 0.01 0.01 0.01 0.01 0.01 0.02 0.01 0.01 0.01 0.00 0.00 0.01 0.05 0.06 0.03 0.02 0.03 0.05 0.06 0.06 0.07 0.07 0.08 0.09 0.08 0.08 0.07
0.00 0.00 0.00 0.00 0.00 0.00 0.00 0.00 0.00 0.00 0.00 0.01 0.00 0.00 0.00 0.01 0.01 0.01 0.01 0.01 0.01 0.02 0.01 0.01 0.01 0.00 0.00 0.00 0.04 0.07 0.03 0.03 0.03 0.06 0.09 0.08 0.07 0.07 0.07 0.15 0.25 0.18 0.10
0.00 0.00 0.00 0.00 0.00 0.00 0.00 0.00 0.00 0.00 0.00 0.00 0.00 0.00 0.01 0.01 0.01 0.01 0.01 0.01 0.01 0.01 0.01 0.01 0.01 0.00 0.00 0.00 0.01 0.04 0.02 0.03 0.05 0.06 0.07 0.10 0.08 0.06 0.05 0.09 0.21 0.22 0.12
0.00 0.00 0.00 0.00 0.00 0.00 0.00 0.00 0.00 0.00 0.00 0.00 0.00 0.01 0.01 0.01 0.01 0.01 0.01 0.01 0.01 0.02 0.01 0.01 0.01 0.00 0.00 0.00 0.00 0.01 0.02 0.02 0.05 0.07 0.06 0.06 0.08 0.07 0.06 0.06 0.06 0.09 0.11
0.00 0.00 0.00 0.00 0.00 0.00 0.00 0.00 0.00 0.00 0.00 0.00 0.00 0.01 0.01 0.02 0.02 0.02 0.01 0.01 0.01 0.02 0.02 0.01 0.00 0.00 0.00 0.00 0.00 0.00 0.01 0.01 0.03 0.04 0.04 0.04 0.05 0.06 0.05 0.04 0.05 0.06 0.07
0.00 0.00 0.00 0.00 0.00 0.00 0.00 0.00 0.00 0.00 0.00 0.00 0.00 0.01 0.01 0.02 0.02 0.01 0.01 0.01 0.01 0.01 0.01 0.00 0.00 0.00 0.00 0.00 0.00 0.00 0.00 0.00 0.01 0.01 0.02 0.03 0.03 0.04 0.05 0.04 0.05 0.06 0.07
0.00 0.00 0.00 0.00 0.00 0.00 0.00 0.00 0.00 0.00 0.00 0.00 0.01 0.00 0.01 0.01 0.02 0.01 0.00 0.00 0.01 0.01 0.01 0.01 0.02 0.02 0.01 0.01 0.01 0.00 0.00 0.00 0.00 0.00 0.01 0.01 0.01 0.02 0.03 0.04 0.04 0.05 0.05
0.00 0.00 0.00 0.00 0.00 0.00 0.00 0.00 0.00 0.00 0.00 0.00 0.00 0.00 0.01 0.01 0.01 0.00 0.00 0.00 0.01 0.02 0.03 0.03 0.03 0.04 0.03 0.03 0.03 0.01 0.00 0.00 0.00 0.00 0.00 0.00 0.01 0.01 0.02 0.03 0.04 0.04 0.04
0.00 0.00 0.00 0.00 0.00 0.00 0.00 0.00 0.00 0.00 0.00 0.00 0.00 0.00 0.00 0.01 0.00 0.00 0.00 0.00 0.00 0.01 0.01 0.02 0.02 0.04 0.08 0.07 0.09 0.09 0.02 0.01 0.01 0.01 0.01 0.00 0.01 0.01 0.02 0.02 0.03 0.03 0.05
0.00 0.00 0.00 0.00 0.00 0.00 0.00 0.00 0.00 0.00 0.00 0.00 0.00 0.00 0.00 0.00 0.01 0.01 0.01 0.01 0.01 0.00 0.00 0.00 0.01 0.02 0.07 0.10 0.13 0.15 0.09 0.04 0.01 0.01 0.01 0.01 0.02 0.04 0.05 0.04 0.03 0.03 0.03
0.00 0.00 0.00 0.00 0.00 0.00 0.00 0.00 0.00 0.00 0.00 0.00 0.00 0.00 0.00 0.00 0.00 0.00 0.00 0.01 0.00 0.00 0.00 0.00 0.00 0.01 0.03 0.07 0.11 0.13 0.12 0.06 0.03 0.02 0.02 0.02 0.01 0.04 0.06 0.06 0.06 0.05 0.02
0.00 0.00 0.01 0.01 0.00 0.00 0.00 0.00 0.00 0.00 0.00 0.00 0.00 0.00 0.00 0.00 0.00 0.00 0.00 0.00 0.00 0.01 0.00 0.00 0.00 0.01 0.01 0.02 0.04 0.06 0.05 0.04 0.03 0.02 0.02 0.02 0.01 0.01 0.03 0.04 0.04 0.04 0.04
0.01 0.00 0.00 0.01 0.01 0.01 0.00 0.00 0.00 0.00 0.00 0.00 0.00 0.00 0.00 0.00 0.00 0.00 0.00 0.00 0.00 0.01 0.01 0.00 0.01 0.03 0.02 0.01 0.01 0.02 0.03 0.03 0.03 0.03 0.02 0.01 0.01 0.01 0.01 0.02 0.03 0.03 0.03
0.01 0.02 0.01 0.01 0.01 0.01 0.01 0.00 0.00 0.00 0.00 0.00 0.00 0.00 0.00 0.00 0.00 0.00 0.00 0.00 0.00 0.02 0.02 0.01 0.01 0.02 0.03 0.01 0.01 0.01 0.03 0.04 0.05 0.02 0.01 0.01 0.00 0.00 0.00 0.01 0.01 0.01 0.02
0.03 0.03 0.03 0.03 0.02 0.01 0.01 0.00 0.00 0.00 0.00 0.00 0.00 0.00 0.00 0.00 0.00 0.00 0.00 0.00 0.00 0.00 0.01 0.01 0.01 0.00 0.01 0.01 0.03 0.06 0.06 0.03 0.03 0.01 0.01 0.01 0.01 0.01 0.01 0.01 0.01 0.01 0.02
0.03 0.03 0.03 0.02 0.01 0.01 0.01 0.00 0.00 0.00 0.00 0.00 0.00 0.00 0.00 0.00 0.00 0.00 0.00 0.00 0.00 0.00 0.00 0.00 0.00 0.00 0.00 0.00 0.01 0.01 0.02 0.01 0.01 0.01 0.00 0.00 0.00 0.00 0.01 0.01 0.01 0.01 0.01
0.01 0.01 0.01 0.02 0.01 0.01 0.01 0.01 0.00 0.00 0.00 0.00 0.00 0.00 0.00 0.00 0.00 0.00 0.00 0.00 0.00 0.00 0.00 0.00 0.00 0.00 0.00 0.00 0.00 0.00 0.00 0.01 0.03 0.04 0.01 0.00 0.00 0.00 0.01 0.01 0.01 0.01 0.01
0.01 0.01 0.01 0.01 0.01 0.01 0.02 0.01 0.01 0.00 0.00 0.00 0.00 0.00 0.00 0.00 0.00 0.00 0.00 0.00 0.00 0.00 0.00 0.00 0.00 0.00 0.00 0.00 0.00 0.00 0.00 0.00 0.01 0.01 0.02 0.01 0.00 0.00 0.01 0.01 0.01 0.01 0.01
0.01 0.01 0.01 0.01 0.01 0.01 0.02 0.02 0.02 0.01 0.00 0.00 0.00 0.00 0.00 0.00 0.00 0.00 0.00 0.00 0.00 0.00 0.00 0.00 0.00 0.00 0.00 0.00 0.00 0.00 0.00 0.00 0.00 0.00 0.01 0.02 0.01 0.00 0.01 0.01 0.01 0.00 0.00
0.01 0.02 0.02 0.02 0.02 0.02 0.03 0.02 0.02 0.01 0.01 0.00 0.00 0.00 0.00 0.00 0.00 0.00 0.00 0.00 0.00 0.00 0.00 0.00 0.00 0.00 0.00 0.00 0.00 0.00 0.00 0.00 0.00 0.00 0.00 0.00 0.00 0.00 0.01 0.02 0.01 0.00 0.00
0.00 0.01 0.01 0.01 0.01 0.01 0.02 0.02 0.02 0.01 0.01 0.00 0.00 0.00 0.00 0.00 0.01 0.01 0.00 0.00 0.00 0.00 0.00 0.00 0.00 0.00 0.00 0.00 0.00 0.00 0.00 0.00 0.00 0.01 0.01 0.00 0.00 0.00 0.01 0.01 0.01 0.00 0.00
MSLP
1017.84 1017.71 1017.53 1017.35 1017.20 1017.11 1017.09 1017.14 1017.23 1017.35 1017.47 1017.56 1017.63 1017.68 1017.70 1017.73 1017.75 1017.79 1017.82 1017.84 1017.85 1017.85 1017.84 1017.83 1017.83 1017.86 1017.91 1017.98 1018.07 1018.15 1018.21 1018.25 1018.27 1018.28 1018.29 1018.31 1018.35 1018.42 1018.52 1018.62 1018.73 1018.83 1018.93
1018.00 1017.86 1017.70 1017.56 1017.46 1017.42 1017.45 1017.54 1017.68 1017.83 1017.97 1018.08 1018.16 1018.20 1018.22 1018.22 1018.21 1018.19 1018.17 1018.15 1018.12 1018.08 1018.05 1018.03 1018.03 1018.05 1018.09 1018.14 1018.19 1018.23 1018.25 1018.25 1018.23 1018.21 1018.20 1018.22 1018.27 1018.35 1018.45 1018.56 1018.66 1018.75 1018.84
1018.18 1018.04 1017.91 1017.81 1017.77 1017.79 1017.89 1018.03 1018.20 1018.37 1018.53 1018.65 1018.73 1018.77 1018.77 1018.75 1018.70 1018.64 1018.57 1018.49 1018.42 1018.34 1018.28 1018.24 1018.22 1018.23 1018.26 1018.29 1018.31 1018.32 1018.30 1018.26 1018.21 1018.16 1018.13 1018.14 1018.19 1018.27 1018.38 1018.50 1018.60 1018.70 1018.78
1018.38 1018.24 1018.14 1018.09 1018.11 1018.19 1018.34 1018.52 1018.72 1018.91 1019.08 1019.20 1019.28 1019.31 1019.30 1019.26 1019.19 1019.09 1018.98 1018.86 1018.73 1018.62 1018.52 1018.45 1018.42 1018.41 1018.43 1018.44 1018.45 1018.43 1018.38 1018.31 1018.22 1018.14 1018.09 1018.07 1018.11 1018.18 1018.28 1018.40 1018.52 1018.62 1018.70
1018.61 1018.47 1018.39 1018.38 1018.45 1018.58 1018.76 1018.97 1019.17 1019.37 1019.53 1019.65 1019.72 1019.75 1019.75 1019.70 1019.62 1019.51 1019.37 1019.21 1019.05 1018.89 1018.76 1018.66 1018.61 1018.59 1018.59 1018.60 1018.60 1018.57 1018.50 1018.40 1018.27 1018.15 1018.05 1017.99 1017.97 1018.01 1018.09 1018.20 1018.32 1018.43 1018.54
1018.86 1018.72 1018.66 1018.68 1018.77 1018.92 1019.11 1019.31 1019.51 1019.69 1019.83 1019.94 1020.02 1020.06 1020.07 1020.05 1019.98 1019.88 1019.73 1019.56 1019.36 1019.17 1019.01 1018.88 1018.80 1018.76 1018.76 1018.76 1018.76 1018.72 1018.64 1018.51 1018.34 1018.15 1017.97 1017.83 1017.74 1017.70 1017.73 1017.80 1017.91 1018.04 1018.18
1019.13 1018.99 1018.93 1018.96 1019.06 1019.21 1019.38 1019.56 1019.73 1019.87 1019.99 1020.09 1020.17 1020.24 1020.29 1020.30 1020.27 1020.20 1020.06 1019.88 1019.67 1019.45 1019.25 1019.09 1018.98 1018.92 1018.91 1018.92 1018.91 1018.87 1018.76 1018.59 1018.36 1018.09 1017.81 1017.54 1017.33 1017.18 1017.12 1017.14 1017.23 1017.37 1017.56
1019.40 1019.26 1019.21 1019.24 1019.33 1019.46 1019.60 1019.73 1019.85 1019.95 1020.04 1020.13 1020.23 1020.33 1020.42 1020.49 1020.51 1020.48 1020.37 1020.20 1019.98 1019.73 1019.50 1019.30 1019.15 1019.07 1019.04 1019.04 1019.03 1018.98 1018.85 1018.63 1018.31 1017.93 1017.51 1017.09 1016.71 1016.41 1016.22 1016.16 1016.21 1016.38 1016.62
1019.69 1019.56 1019.51 1019.54 1019.61 1019.70 1019.80 1019.88 1019.94 1020.00 1020.06 1020.14 1020.25 1020.38 1020.52 1020.64 1020.72 1020.73 1020.66 1020.50 1020.27 1020.00 1019.73 1019.48 1019.30 1019.19 1019.14 1019.12 1019.09 1019.01 1018.84 1018.55 1018.14 1017.62 1017.04 1016.43 1015.87 1015.39 1015.05 1014.88 1014.89 1015.06 1015.38
1019.96 1019.87 1019.83 1019.86 1019.91 1019.97 1020.03 1020.05 1020.07 1020.08 1020.11 1020.17 1020.28 1020.44 1020.62 1020.79 1020.92 1020.97 1020.92 1020.77 1020.53 1020.24 1019.93 1019.65 1019.42 1019.27 1019.18 1019.13 1019.06 1018.94 1018.72 1018.35 1017.83 1017.17 1016.41 1015.61 1014.84 1014.17 1013.67 1013.39 1013.34 1013.52 1013.90
1020.22 1020.17 1020.16 1020.20 1020.25 1020.28 1020.30 1020.28 1020.25 1020.22 1020.22 1020.27 1020.38 1020.54 1020.74 1020.94 1021.10 1021.17 1021.14 1020.99 1020.75 1020.43 1020.09 1019.77 1019.50 1019.30 1019.16 1019.06 1018.95 1018.78 1018.48 1018.03 1017.40 1016.60 1015.67 1014.69 1013.73 1012.89 1012.23 1011.83 1011.72 1011.90 1012.34
1020.43 1020.43 1020.47 1020.53 1020.58 1020.61 1020.60 1020.56 1020.49 1020.43 1020.40 1020.43 1020.52 1020.68 1020.87 1021.08 1021.24 1021.32 1021.30 1021.15 1020.90 1020.57 1020.21 1019.85 1019.54 1019.29 1019.10 1018.95 1018.78 1018.53 1018.17 1017.63 1016.89 1015.97 1014.91 1013.78 1012.67 1011.67 1010.88 1010.38 1010.21 1010.39 1010.87
1020.57 1020.63 1020.72 1020.80 1020.87 1020.91 1020.89 1020.84 1020.75 1020.67 1020.61 1020.61 1020.68 1020.81 1020.98 1021.17 1021.32 1021.39 1021.37 1021.23 1020.98 1020.65 1020.28 1019.91 1019.56 1019.27 1019.03 1018.81 1018.57 1018.26 1017.82 1017.20 1016.39 1015.39 1014.23 1013.00 1011.79 1010.69 1009.81 1009.23 1009.01 1009.17 1009.67
1020.60 1020.72 1020.85 1020.97 1021.06 1021.11 1021.11 1021.05 1020.97 1020.87 1020.80 1020.78 1020.81 1020.90 1021.04 1021.19 1021.31 1021.38 1021.35 1021.22 1020.99 1020.69 1020.33 1019.95 1019.59 1019.27 1018.98 1018.70 1018.39 1018.01 1017.51 1016.84 1015.98 1014.93 1013.74 1012.47 1011.22 1010.08 1009.15 1008.53 1008.27 1008.40 1008.89
1020.53 1020.69 1020.85 1021.00 1021.11 1021.18 1021.20 1021.16 1021.08 1020.99 1020.91 1020.87 1020.87 1020.92 1021.01 1021.12 1021.22 1021.27 1021.26 1021.15 1020.95 1020.68 1020.36 1020.00 1019.65 1019.31 1018.98 1018.65 1018.29 1017.86 1017.31 1016.61 1015.73 1014.69 1013.52 1012.28 1011.05 1009.93 1009.01 1008.37 1008.09 1008.17 1008.62
1020.38 1020.55 1020.72 1020.88 1021.01 1021.10 1021.14 1021.12 1021.07 1021.00 1020.92 1020.86 1020.84 1020.86 1020.91 1020.98 1021.06 1021.10 1021.09 1021.02 1020.87 1020.65 1020.38 1020.07 1019.74 1019.40 1019.06 1018.69 1018.29 1017.82 1017.25 1016.55 1015.70 1014.71 1013.61 1012.46 1011.31 1010.26 1009.38 1008.76 1008.47 1008.50 1008.87
1020.21 1020.36 1020.52 1020.67 1020.80 1020.90 1020.96 1020.98 1020.95 1020.90 1020.84 1020.78 1020.74 1020.74 1020.75 1020.80 1020.84 1020.88 1020.89 1020.85 1020.76 1020.61 1020.40 1020.15 1019.86 1019.54 1019.19 1018.81 1018.39 1017.91 1017.34 1016.67 1015.89 1014.99 1014.01 1012.98 1011.96 1011.02 1010.23 1009.65 1009.34 1009.33 1009.60
1020.11 1020.22 1020.34 1020.46 1020.58 1020.68 1020.75 1020.79 1020.80 1020.77 1020.73 1020.68 1020.63 1020.60 1020.59 1020.60 1020.62 1020.65 1020.67 1020.66 1020.62 1020.53 1020.39 1020.20 1019.95 1019.67 1019.34 1018.97 1018.55 1018.08 1017.54 1016.93 1016.24 1015.47 1014.63 1013.76 1012.90 1012.09 1011.39 1010.87 1010.55 1010.48 1010.65
1020.16 1020.20 1020.27 1020.35 1020.44 1020.53 1020.61 1020.66 1020.69 1020.69 1020.66 1020.61 1020.56 1020.50 1020.46 1020.43 1020.42 1020.43 1020.44 1020.45 1020.43 1020.39 1020.30 1020.16 1019.97 1019.72 1019.42 1019.08 1018.69 1018.26 1017.78 1017.26 1016.68 1016.05 1015.37 1014.67 1013.96 1013.29 1012.70 1012.22 1011.91 1011.78 1011.84
1020.44 1020.41 1020.42 1020.44 1020.50 1020.56 1020.63 1020.69 1020.72 1020.73 1020.71 1020.65 1020.58 1020.49 1020.40 1020.32 1020.26 1020.22 1020.20 1020.20 1020.19 1020.16 1020.10 1020.00 1019.84 1019.64 1019.38 1019.08 1018.74 1018.37 1017.97 1017.54 1017.09 1016.60 1016.08 1015.54 1014.99 1014.45 1013.95 1013.53 1013.22 1013.04 1013.00
1020.98 1020.89 1020.83 1020.81 1020.81 1020.84 1020.89 1020.93 1020.95 1020.95 1020.91 1020.83 1020.72 1020.58 1020.43 1020.28 1020.15 1020.04 1019.97 1019.91 1019.87 1019.83 1019.77 1019.68 1019.55 1019.37 1019.16 1018.91 1018.63 1018.33 1018.03 1017.71 1017.37 1017.02 1016.65 1016.25 1015.83 1015.41 1015.00 1014.62 1014.31 1014.09 1013.98
1021.77 1021.63 1021.53 1021.45 1021.41 1021.40 1021.40 1021.41 1021.40 1021.36 1021.28 1021.16 1020.99 1020.78 1020.56 1020.32 1020.10 1019.90 1019.73 1019.60 1019.49 1019.40 1019.31 1019.21 1019.08 1018.93 1018.75 1018.55 1018.34 1018.12 1017.90 1017.68 1017.45 1017.22 1016.97 1016.69 1016.38 1016.05 1015.71 1015.38 1015.08 1014.83 1014.67
1022.77 1022.60 1022.45 1022.33 1022.25 1022.18 1022.14 1022.09 1022.03 1021.94 1021.80 1021.61 1021.37 1021.08 1020.77 1020.43 1020.11 1019.80 1019.53 1019.30 1019.10 1018.93 1018.79 1018.65 1018.51 1018.36 1018.21 1018.05 1017.88 1017.73 1017.58 1017.44 1017.31 1017.17 1017.00 1016.81 1016.58 1016.32 1016.03 1015.74 1015.46 1015.22 1015.04
1023.86 1023.68 1023.52 1023.37 1023.24 1023.13 1023.02 1022.91 1022.78 1022.62 1022.41 1022.14 1021.82 1021.45 1021.05 1020.62 1020.19 1019.78 1019.40 1019.06 1018.77 1018.51 1018.29 1018.10 1017.92 1017.76 1017.61 1017.47 1017.33 1017.22 1017.12 1017.04 1016.96 1016.87 1016.76 1016.62 1016.44 1016.23 1015.98 1015.72 1015.46 1015.24 1015.07
1024.96 1024.78 1024.61 1024.44 1024.27 1024.11 1023.94 1023.77 1023.57 1023.33 1023.05 1022.71 1022.32 1021.87 1021.39 1020.88 1020.37 1019.87 1019.40 1018.97 1018.58 1018.24 1017.94 1017.68 1017.45 1017.25 1017.08 1016.93 1016.80 1016.69 1016.61 1016.53 1016.47 1016.39 1016.30 1016.18 1016.02 1015.83 1015.61 1015.38 1015.16 1014.97 1014.84
1025.98 1025.81 1025.63 1025.44 1025.24 1025.03 1024.81 1024.57 1024.30 1024.00 1023.65 1023.25 1022.81 1022.31 1021.78 1021.23 1020.66 1020.10 1019.57 1019.06 1018.60 1018.18 1017.81 1017.49 1017.20 1016.95 1016.73 1016.54 1016.38 1016.24 1016.13 1016.03 1015.94 1015.84 1015.73 1015.60 1015.44 1015.25 1015.05 1014.84 1014.66 1014.51 1014.41
Thickness
5741 5740 5738 5736 5735 5734 5733 5732 5730 5729 5728 5727 5726 5725 5724 5723 5723 5722 5722 5722 5723 5724 5725 5726 5727 5728 5730 5732 5733 5735 5737 5739 5741 5742 5744 5746 5748 5749 5751 5752 5752 5753 5753
5740 5739 5736 5735 5734 5732 5731 5730 5728 5727 5726 5725 5723 5722 5721 5721 5720 5719 5719 5719 5719 5720 5721 5722 5723 5724 5726 5728 5729 5732 5734 5736 5737 5739 5741 5743 5745 5747 5748 5748 5749 5749 5750
5739 5737 5735 5733 5732 5731 5730 5729 5727 5726 5724 5723 5721 5720 5719 5718 5717 5716 5716 5716 5716 5716 5717 5718 5719 5721 5722 5724 5726 5728 5730 5732 5733 5735 5737 5739 5742 5744 5745 5745 5746 5747 5747
5737 5735 5733 5731 5730 5730 5728 5727 5724 5722 5720 5719 5717 5717 5716 5716 5715 5714 5713 5712 5712 5712 5713 5714 5715 5716 5718 5720 5722 5724 5726 5728 5729 5731 5733 5735 5737 5740 5740 5741 5742 5743 5743
5735 5734 5731 5729 5729 5728 5726 5725 5721 5720 5717 5716 5715 5714 5713 5713 5712 5711 5710 5709 5709 5708 5708 5709 5710 5711 5713 5715 5718 5721 5724 5725 5725 5727 5728 5730 5732 5734 5734 5736 5738 5738 5739
5732 5731 5729 5727 5727 5725 5723 5721 5719 5717 5715 5714 5714 5710 5709 5709 5709 5708 5707 5706 5705 5704 5704 5705 5706 5707 5708 5710 5713 5719 5721 5721 5721 5722 5724 5726 5729 5730 5730 5731 5732 5733 5733
5730 5728 5727 5725 5724 5721 5719 5718 5717 5714 5712 5711 5708 5704 5704 5705 5704 5703 5703 5702 5702 5701 5700 5700 5701 5702 5703 5705 5708 5712 5714 5715 5716 5717 5719 5721 5725 5726 5725 5725 5726 5726 5726
5727 5725 5724 5722 5721 5719 5717 5716 5714 5711 5709 5708 5704 5698 5694 5694 5697 5699 5698 5697 5697 5697 5697 5696 5697 5697 5698 5700 5702 5704 5706 5709 5711 5712 5713 5715 5717 5717 5718 5718 5719 5719 5719
5724 5723 5721 5720 5718 5716 5714 5712 5711 5709 5705 5705 5703 5699 5691 5686 5688 5691 5692 5692 5692 5692 5692 5692 5692 5693 5693 5694 5696 5698 5700 5702 5705 5707 5708 5709 5709 5710 5710 5712 5713 5713 5714
5721 5720 5719 5717 5715 5714 5712 5710 5709 5707 5704 5701 5700 5699 5696 5692 5686 5682 5685 5687 5688 5688 5688 5689 5688 5688 5689 5689 5690 5692 5694 5696 5699 5700 5702 5703 5703 5704 5705 5706 5707 5708 5709
5718 5717 5716 5715 5713 5711 5710 5708 5707 5705 5703 5700 5697 5696 5693 5690 5687 5681 5677 5679 5682 5683 5684 5684 5684 5684 5684 5684 5685 5687 5688 5690 5692 5693 5695 5696 5697 5698 5699 5701 5702 5703 5704
5715 5714 5713 5712 5710 5709 5707 5706 5704 5702 5700 5698 5696 5694 5691 5688 5684 5681 5676 5674 5674 5677 5680 5680 5679 5679 5679 5679 5680 5681 5683 5684 5685 5687 5688 5689 5691 5692 5693 5695 5696 5697 5698
5711 5711 5711 5709 5708 5706 5705 5704 5702 5699 5698 5695 5693 5691 5690 5688 5685 5681 5676 5672 5670 5671 5673 5675 5675 5675 5674 5674 5675 5677 5678 5679 5680 5680 5681 5682 5684 5685 5687 5688 5689 5690 5691
5710 5710 5708 5707 5705 5704 5702 5701 5698 5696 5695 5693 5691 5689 5687 5685 5685 5681 5676 5671 5666 5665 5666 5668 5671 5671 5670 5670 5671 5672 5673 5673 5674 5675 5675 5676 5677 5679 5681 5681 5682 5683 5683
5709 5708 5706 5704 5703 5701 5699 5697 5695 5693 5691 5689 5687 5685 5684 5682 5682 5680 5677 5673 5667 5661 5659 5663 5664 5667 5667 5666 5666 5667 5667 5668 5669 5669 5670 5670 5671 5673 5674 5675 5675 5676 5676
5707 5705 5703 5702 5700 5698 5696 5694 5691 5689 5687 5685 5684 5682 5680 5679 5678 5676 5674 5671 5668 5662 5657 5659 5660 5662 5663 5663 5662 5662 5662 5663 5663 5664 5664 5664 5665 5666 5667 5667 5668 5668 5668
5705 5703 5701 5698 5696 5694 5692 5690 5687 5686 5683 5681 5680 5678 5676 5675 5673 5672 5670 5668 5665 5661 5656 5656 5657 5658 5658 5658 5658 5658 5658 5658 5657 5658 5658 5658 5658 5658 5658 5659 5659 5659 5659
5702 5700 5698 5695 5692 5690 5688 5685 5683 5681 5679 5677 5675 5674 5672 5671 5669 5667 5665 5663 5661 5659 5655 5653 5653 5653 5654 5654 5653 5652 5652 5652 5652 5652 5652 5651 5651 5651 5651 5650 5650 5650 5650
5698 5696 5694 5691 5688 5686 5684 5682 5680 5677 5675 5673 5671 5669 5668 5666 5664 5662 5660 5658 5656 5656 5652 5649 5647 5647 5647 5648 5647 5647 5647 5646 5646 5645 5645 5644 5643 5643 5642 5641 5641 5640 5640
5695 5692 5690 5687 5685 5682 5680 5678 5675 5673 5671 5669 5667 5665 5664 5662 5660 5658 5656 5654 5652 5649 5646 5643 5642 5641 5640 5640 5639 5638 5638 5638 5638 5638 5637 5636 5635 5634 5633 5632 5631 5631 5630
5691 5688 5685 5683 5680 5678 5676 5674 5671 5669 5666 5663 5662 5660 5659 5658 5657 5655 5653 5649 5647 5643 5640 5637 5634 5633 5632 5631 5630 5629 5629 5628 5629 5629 5628 5627 5626 5625 5624 5623 5622 5622 5621
5686 5683 5680 5678 5675 5674 5673 5671 5668 5664 5661 5658 5656 5655 5654 5653 5652 5651 5649 5646 5644 5639 5634 5631 5628 5626 5625 5624 5623 5622 5620 5618 5617 5619 5617 5617 5616 5615 5614 5614 5613 5613 5612
5681 5678 5675 5672 5670 5669 5668 5666 5663 5659 5656 5653 5651 5648 5648 5647 5645 5643 5642 5640 5637 5635 5633 5628 5624 5621 5619 5619 5617 5614 5611 5609 5607 5609 5607 5607 5607 5605 5606 5605 5604 5603 5602
5676 5673 5670 5667 5665 5664 5663 5660 5657 5654 5650 5648 5645 5642 5640 5639 5638 5636 5634 5632 5629 5627 5625 5623 5620 5618 5616 5614 5610 5608 5605 5602 5601 5599 5597 5595 5596 5595 5596 5595 5594 5592 5592
5672 5668 5665 5662 5659 5658 5657 5654 5652 5647 5643 5641 5639 5637 5634 5633 5632 5630 5627 5623 5621 5619 5618 5616 5614 5611 5608 5605 5602 5598 5594 5591 5589 5589 5586 5583 5584 5583 5584 5584 5583 5582 5581
5667 5663 5660 5657 5654 5652 5650 5648 5646 5641 5636 5633 5631 5630 5629 5627 5625 5623 5619 5615 5612 5611 5609 5607 5604 5602 5599 5596 5593 5589 5584 5579 5577 5576 5576 5571 5570 5568 5569 5572 5571 5570 5569